Location: Unspecified
(43.8688°N, 3.6914°E)
Time: 02:39:15
(UTC+02:00)

ISS - Visible Passes

Search period start: 21 July 2017 00:00
Search period end: 31 July 2017 00:00
Orbit: 400 x 408 km, 51.6° (Epoch: 21 July)

Date Brightness Start Highest point End Pass type
(mag) Time Alt. Az. Time Alt. Az. Time Alt. Az.
21 Jul -1.6 02:01:57 25° NNW 02:02:07 25° NNW 02:04:53 10° NE visible
21 Jul -1.2 03:36:43 10° NW 03:39:19 21° N 03:41:55 10° ENE visible
21 Jul -2.9 05:13:07 10° NW 05:16:19 51° NNE 05:19:31 10° ESE visible
22 Jul -1.7 01:10:45 25° NNE 01:10:45 25° NNE 01:12:38 10° NE visible
22 Jul -1.1 02:44:17 10° NW 02:46:48 20° N 02:49:19 10° NE visible
22 Jul -2.1 04:20:53 10° NW 04:23:56 34° NNE 04:26:57 10° E visible
22 Jul -2.9 22:38:09 10° SSW 22:40:55 26° SE 22:43:41 10° E visible
23 Jul -2.8 00:14:05 10° W 00:17:14 46° NNW 00:20:24 10° NE visible
23 Jul -1.2 01:51:42 10° WNW 01:54:16 21° N 01:56:50 10° NE visible
23 Jul -1.5 03:28:39 10° NW 03:31:28 26° NNE 03:34:18 10° ENE visible
23 Jul -4.0 05:04:57 10° WNW 05:08:13 79° SSW 05:11:28 10° SE visible
23 Jul -3.8 23:21:38 10° WSW 23:24:53 77° NNW 23:28:09 10° NE visible
24 Jul -1.4 00:59:02 10° WNW 01:01:44 23° NNW 01:04:28 10° NE visible
24 Jul -1.2 02:36:20 10° NW 02:38:57 22° N 02:41:36 10° ENE visible
24 Jul -3.3 04:12:40 10° NW 04:15:53 60° NNE 04:19:07 10° ESE visible
24 Jul -2.4 05:49:42 10° W 05:52:06 19° SW 05:54:30 10° S visible
24 Jul -3.9 22:29:23 10° SW 22:32:35 59° SE 22:35:48 10° ENE visible
25 Jul -1.8 00:06:19 10° W 00:09:14 29° NNW 00:12:09 10° NE visible
25 Jul -1.1 01:43:52 10° NW 01:46:25 20° N 01:48:56 10° NE visible
25 Jul -2.4 03:20:24 10° NW 03:23:29 39° NNE 03:26:35 10° E visible
25 Jul -3.2 04:56:56 10° WNW 04:59:56 34° SW 05:02:55 10° SSE visible
25 Jul -2.4 23:13:40 10° W 23:16:46 40° NNW 23:19:52 10° NE visible
26 Jul -1.1 00:51:18 10° NW 00:53:50 20° N 00:56:22 10° NE visible
26 Jul -1.2 02:28:07 10° NW 02:29:15 18° NNW 02:29:15 18° NNW visible
26 Jul -3.4 22:21:07 10° WSW 22:24:21 64° NNW 22:27:35 10° NE visible
26 Jul -1.3 23:58:37 10° WNW 00:01:16 22° N 00:03:55 10° NE visible
27 Jul -1.3 01:35:47 10° NW 01:37:53 22° N 01:37:53 22° N visible
27 Jul -1.6 23:05:52 10° WNW 23:08:42 27° NNW 23:11:33 10° NE visible
28 Jul -1.3 00:43:20 10° NW 00:45:54 21° N 00:46:53 18° NNE visible
28 Jul -2.1 22:13:08 10° W 22:16:11 35° NNW 22:19:13 10° NE visible
28 Jul -1.2 23:50:46 10° NW 23:53:17 20° N 23:55:48 10° NE visible
29 Jul -1.1 01:27:28 10° NW 01:28:37 18° NNW 01:28:37 18° NNW visible
29 Jul -1.3 22:58:04 10° WNW 23:00:40 21° N 23:03:16 10° NE visible
30 Jul -1.6 00:35:07 10° NW 00:37:47 24° N 00:37:47 24° N visible
30 Jul -1.5 22:05:17 10° WNW 22:08:03 25° NNW 22:10:50 10° NE visible
30 Jul -1.4 23:42:40 10° NW 23:45:16 21° N 23:46:59 15° NE visible
